"startDT [UTC]","vpos","CH4 [ppm]","stdev(CH4) [ppm]","CO2 [ppm]","stdev(CO2) [ppm]","H2O_reported [%]","stdev(H2O_reported)","CavityPressure [torr]","CavityTemp [C]","OutletValve","CH4_dry [ppm]","CO2_dry [ppm]","DasTemp [C]","EtalonTemp [C]","WarmBoxTemp [C]","MPVPosition","T_ECpre [C]","T_EC1 [C]","T_EC2 [C]","p_inlet [hPa]","p_in [hPa]","p_out [hPa]","T_inlet [C]","RH_inlet [%]","dwpt_inlet [C]","T_vent [C]","RH_vent [%]","dwpt_vent [C]","flow_vent [l min-1]","flow_inlet [l min-1]","dwpt_sample [C]","T_room [C]"
2015-09-18 00:00:00,0.0,2.00080,0.00049,394.757,0.051,0.8725,0.0025,140.001,45.001,31687.51741,2.01849,399.017,36.925,45.068,45.001,0.00,0.10,-272.73,-272.80,-9,516,-945,21.4,26.6,1.5,21.6,27.1,1.8,5.73,1.76,-0.0,27.9
2015-09-18 00:01:00,0.0,1.99939,0.00045,394.609,0.050,0.8693,0.0045,140.002,45.001,31689.03110,2.01705,398.854,36.971,45.068,45.001,0.00,0.09,-272.75,-272.80,-8,515,-945,21.4,26.5,1.4,21.6,27.1,1.8,5.73,2.07,-0.1,27.9
2015-09-18 00:02:00,0.0,1.99851,0.00052,394.504,0.045,0.8670,0.0027,140.001,45.001,31691.98792,2.01604,398.732,37.000,45.068,45.001,0.00,0.09,-272.75,-272.81,-9,515,-945,21.5,26.4,1.3,21.6,26.9,1.8,5.73,2.03,-0.1,27.9
2015-09-18 00:03:00,0.0,1.99928,0.00077,394.514,0.070,0.8703,0.0023,140.000,45.001,31694.00804,2.01687,398.760,37.024,45.068,45.001,0.00,0.10,-272.74,-272.80,-10,516,-945,21.5,26.4,1.4,21.7,27.0,1.8,5.73,1.76,-0.0,28.0
2015-09-18 00:04:00,0.0,1.99972,0.00054,394.518,0.041,0.8717,0.0030,140.000,45.001,31694.05648,2.01734,398.768,37.073,45.068,45.001,0.00,0.10,-272.74,-272.80,-9,516,-945,21.5,26.5,1.5,21.7,27.0,1.8,5.73,2.07,-0.0,28.0
2015-09-18 00:05:00,0.0,1.99996,0.00061,394.468,0.035,0.8776,0.0020,139.998,45.001,31694.30402,2.01770,398.750,37.111,45.068,45.001,0.00,0.09,-272.75,-272.81,-8,516,-945,21.5,26.7,1.5,21.6,27.2,1.9,5.73,2.03,-0.1,28.0
2015-09-18 00:06:00,0.0,1.99788,0.00066,394.355,0.046,0.8794,0.0029,140.000,45.001,31697.95225,2.01574,398.647,37.139,45.068,45.001,0.00,0.09,-272.74,-272.80,-10,516,-946,21.5,26.7,1.6,21.6,27.2,1.9,5.73,1.76,-0.0,28.0
2015-09-18 00:07:00,0.0,1.99725,0.00058,394.254,0.053,0.8756,0.0025,139.999,45.001,31699.22159,2.01497,398.525,37.179,45.068,45.001,0.00,0.09,-272.74,-272.80,-10,516,-946,21.5,26.6,1.5,21.7,27.2,1.9,5.73,2.09,-0.0,28.0
2015-09-18 00:08:00,0.0,1.99675,0.00062,394.228,0.043,0.8760,0.0025,139.999,45.001,31700.36182,2.01446,398.501,37.190,45.068,45.001,0.00,0.09,-272.74,-272.81,-8,516,-946,21.5,26.6,1.5,21.7,27.1,1.9,5.73,1.99,-0.0,28.1
2015-09-18 00:09:00,0.0,1.99648,0.00049,394.190,0.036,0.8791,0.0025,139.999,45.001,31703.76582,2.01424,398.475,37.190,45.068,45.001,0.00,0.09,-272.74,-272.80,-9,516,-946,21.5,26.7,1.6,21.7,27.1,2.0,5.73,1.77,-0.0,28.1
2015-09-18 00:10:00,0.0,1.99546,0.00075,394.113,0.065,0.8794,0.0025,140.003,45.000,31705.88345,2.01327,398.402,37.178,45.068,45.000,0.00,0.09,-272.74,-272.79,-10,516,-946,21.5,26.7,1.6,21.7,27.2,1.9,5.73,2.08,-0.0,28.0
2015-09-18 00:11:00,0.0,1.99511,0.00061,394.084,0.053,0.8690,0.0026,140.002,45.000,31703.96573,2.01265,398.320,37.098,45.067,45.000,0.00,0.09,-272.74,-272.81,-9,516,-946,21.5,26.4,1.4,21.7,27.0,1.8,5.73,2.04,-0.0,28.0
2015-09-18 00:12:00,0.0,1.99581,0.00034,394.103,0.030,0.8742,0.0026,140.000,44.999,31702.63058,2.01341,398.362,36.976,45.066,44.999,0.00,0.09,-272.74,-272.81,-9,516,-945,21.4,26.6,1.5,21.7,27.0,1.9,5.73,1.82,-0.0,28.0
2015-09-18 00:13:00,0.0,1.99556,0.00053,394.047,0.058,0.8782,0.0031,140.001,44.998,31702.36482,2.01334,398.329,36.780,45.066,44.998,0.00,0.09,-272.74,-272.80,-9,516,-945,21.4,26.7,1.5,21.6,27.1,1.9,5.73,1.85,-0.0,27.9
2015-09-18 00:14:00,0.0,1.99508,0.00084,393.978,0.067,0.8786,0.0030,140.000,44.997,31696.94369,2.01277,398.257,36.558,45.065,44.997,0.00,0.10,-272.74,-272.80,-9,516,-945,21.4,26.9,1.6,21.6,27.2,1.9,5.73,1.93,-0.0,27.9
2015-09-18 00:15:00,0.0,1.99615,0.00070,394.005,0.071,0.8882,0.0029,140.000,44.996,31687.52275,2.01411,398.337,36.325,45.064,44.997,0.00,0.09,-272.75,-272.80,-9,516,-944,21.4,27.3,1.7,21.6,27.5,2.0,5.73,1.99,-0.0,27.8
2015-09-18 00:16:00,0.0,1.99484,0.00074,393.837,0.055,0.8847,0.0029,140.000,44.996,31677.20181,2.01271,398.147,36.122,45.064,44.997,0.00,0.09,-272.75,-272.80,-9,516,-944,21.3,27.2,1.6,21.5,27.6,2.1,5.73,2.02,-0.0,27.7
2015-09-18 00:17:00,0.0,1.99299,0.00173,393.611,0.190,0.8840,0.0032,139.999,44.995,31669.61554,2.01097,397.924,35.924,45.065,44.997,0.00,0.09,-272.74,-272.80,-9,516,-944,21.3,27.2,1.6,21.5,27.5,2.0,5.73,2.03,-0.0,27.6
2015-09-18 00:18:00,0.0,1.99060,0.00115,393.348,0.098,0.8800,0.0034,140.001,44.996,31664.15172,2.00838,397.632,35.766,45.065,44.998,0.00,0.09,-272.74,-272.80,-9,516,-943,21.3,27.2,1.6,21.5,27.5,1.9,5.73,2.00,-0.0,27.6
2015-09-18 00:19:00,0.0,1.98965,0.00135,393.203,0.138,0.8826,0.0034,140.001,44.996,31656.10789,2.00751,397.501,35.670,45.066,44.999,0.00,0.09,-272.74,-272.81,-10,516,-943,21.2,27.3,1.6,21.4,27.6,2.0,5.73,1.90,-0.1,27.5
2015-09-18 00:20:00,0.0,1.98626,0.00116,392.891,0.074,0.8780,0.0030,140.000,44.997,31653.79396,2.00400,397.160,35.625,45.067,45.000,0.00,0.09,-272.74,-272.80,-10,515,-943,21.2,27.1,1.5,21.5,27.5,1.9,5.73,1.80,-0.1,27.5
2015-09-18 00:21:00,0.0,1.98590,0.00062,392.815,0.044,0.8765,0.0022,139.999,44.998,31652.44440,2.00345,397.072,35.630,45.068,45.001,0.00,0.09,-272.74,-272.79,-9,516,-943,21.2,27.1,1.5,21.5,27.4,1.9,5.73,1.94,-0.0,27.6
2015-09-18 00:22:00,0.0,1.98530,0.00110,392.763,0.079,0.8879,0.0041,140.002,44.999,31653.04298,2.00326,397.080,35.677,45.069,45.001,0.00,0.09,-272.75,-272.81,-9,515,-943,21.3,27.5,1.7,21.5,27.7,2.0,5.73,2.12,-0.1,27.5
2015-09-18 00:23:00,0.0,1.98250,0.00121,392.572,0.051,0.8837,0.0032,140.001,45.000,31654.70406,2.00026,396.866,35.733,45.069,45.002,0.00,0.09,-272.74,-272.80,-9,515,-943,21.3,27.3,1.7,21.5,27.7,2.1,5.73,1.96,-0.0,27.6
2015-09-18 00:24:00,0.0,1.98230,0.00045,392.573,0.034,0.8825,0.0030,139.999,45.001,31654.72061,1.99995,396.857,35.810,45.069,45.002,0.00,0.09,-272.74,-272.80,-9,515,-944,21.3,27.3,1.7,21.5,27.6,2.0,5.73,1.78,-0.1,27.6
2015-09-18 00:25:00,0.0,1.98330,0.00086,392.549,0.049,0.8950,0.0024,140.002,45.002,31657.56036,2.00127,396.896,35.886,45.069,45.001,0.00,0.09,-272.75,-272.80,-10,515,-944,21.2,27.7,1.8,21.5,27.9,2.2,5.73,1.99,-0.1,27.6
2015-09-18 00:26:00,0.0,1.98195,0.00066,392.509,0.050,0.8929,0.0017,139.999,45.002,31659.85195,1.99990,396.846,35.965,45.069,45.001,0.00,0.09,-272.74,-272.81,-9,515,-944,21.3,27.6,1.8,21.5,27.9,2.2,5.73,2.13,-0.1,27.6
2015-09-18 00:27:00,0.0,1.98183,0.00072,392.424,0.057,0.8915,0.0026,140.001,45.002,31661.37635,1.99973,396.756,36.039,45.068,45.001,0.00,0.09,-272.73,-272.80,-9,515,-944,21.3,27.5,1.8,21.5,27.9,2.1,5.73,1.86,-0.1,27.6
2015-09-18 00:28:00,0.0,1.98141,0.00106,392.387,0.044,0.8875,0.0034,139.999,45.002,31664.71732,1.99929,396.695,36.142,45.068,45.000,0.00,0.10,-272.74,-272.80,-9,515,-944,21.3,27.3,1.7,21.5,27.7,2.1,5.73,1.82,-0.1,27.7
2015-09-18 00:29:00,0.0,1.97933,0.00086,392.364,0.036,0.8776,0.0053,140.002,45.002,31668.83113,1.99692,396.626,36.242,45.068,45.000,0.00,0.09,-272.75,-272.81,-10,515,-944,21.3,27.0,1.5,21.5,27.6,2.0,5.73,2.10,-0.1,27.7
2015-09-18 00:30:00,0.0,1.97945,0.00043,392.358,0.037,0.8736,0.0033,139.999,45.002,31670.37682,1.99694,396.594,36.313,45.067,45.000,0.00,0.09,-272.74,-272.80,-10,515,-944,21.3,26.9,1.5,21.5,27.3,1.8,5.73,2.02,-0.1,27.7
2015-09-18 00:31:00,0.0,1.97992,0.00038,392.363,0.032,0.8833,0.0037,140.000,45.002,31672.58297,1.99761,396.651,36.379,45.067,45.000,0.00,0.10,-272.74,-272.80,-9,516,-944,21.3,27.2,1.6,21.5,27.5,2.0,5.73,1.78,-0.1,27.7
2015-09-18 00:32:00,0.0,1.97988,0.00060,392.376,0.033,0.8789,0.0031,140.000,45.001,31673.25787,1.99748,396.641,36.457,45.067,45.000,0.00,0.09,-272.75,-272.80,-8,515,-944,21.3,27.0,1.6,21.5,27.5,2.0,5.73,1.97,-0.1,27.8
2015-09-18 00:33:00,0.0,1.98015,0.00053,392.377,0.029,0.8824,0.0056,140.001,45.001,31675.71891,1.99787,396.658,36.527,45.067,45.000,0.00,0.09,-272.74,-272.81,-9,515,-945,21.3,27.1,1.6,21.5,27.4,2.0,5.73,2.12,-0.1,27.8
2015-09-18 00:34:00,0.0,1.97940,0.00042,392.530,0.114,0.8861,0.0072,140.001,45.001,31677.16160,1.99713,396.829,36.600,45.067,45.000,0.00,0.09,-272.74,-272.80,-10,515,-945,21.4,27.2,1.7,21.5,27.7,2.1,5.73,1.85,-0.0,27.8
2015-09-18 00:35:00,0.0,1.97854,0.00068,392.836,0.053,0.8635,0.0054,139.999,45.001,31677.22796,1.99583,397.030,36.657,45.067,45.000,0.00,0.09,-272.74,-272.80,-9,516,-945,21.4,26.4,1.3,21.6,27.1,1.8,5.73,1.84,-0.1,27.8
2015-09-18 00:36:00,0.0,1.97729,0.00159,392.910,0.081,0.8648,0.0044,140.002,45.001,31679.85646,1.99467,397.107,36.728,45.068,45.000,0.00,0.09,-272.75,-272.80,-8,515,-945,21.4,26.4,1.3,21.6,26.9,1.7,5.73,2.13,-0.1,27.8
2015-09-18 00:37:00,0.0,1.97600,0.00090,393.022,0.047,0.8693,0.0037,139.999,45.001,31682.81909,1.99342,397.244,36.790,45.068,45.000,0.00,0.09,-272.74,-272.80,-9,515,-945,21.4,26.6,1.4,21.6,27.0,1.8,5.73,1.95,-0.0,27.8
2015-09-18 00:38:00,0.0,1.97520,0.00057,393.075,0.033,0.8673,0.0019,140.001,45.001,31686.88849,1.99253,397.290,36.827,45.068,45.000,0.00,0.09,-272.74,-272.80,-10,515,-945,21.5,26.5,1.4,21.6,27.0,1.8,5.73,1.78,-0.1,27.9
2015-09-18 00:39:00,0.0,1.97539,0.00053,393.202,0.062,0.8707,0.0034,139.998,45.001,31687.28766,1.99286,397.430,36.874,45.068,45.001,0.00,0.09,-272.75,-272.81,-9,516,-945,21.5,26.6,1.5,21.6,27.0,1.8,5.73,2.09,-0.0,27.9
2015-09-18 00:40:00,0.0,1.97308,0.00067,393.491,0.060,0.8631,0.0038,139.998,45.001,31689.31445,1.99029,397.686,36.925,45.068,45.001,0.00,0.09,-272.74,-272.81,-9,516,-945,21.4,26.4,1.3,21.6,26.9,1.8,5.73,2.02,-0.0,27.9
2015-09-18 00:41:00,0.0,1.97264,0.00094,393.477,0.034,0.8683,0.0029,139.999,45.001,31689.56110,1.99005,397.702,36.949,45.068,45.001,0.00,0.09,-272.74,-272.80,-9,516,-945,21.5,26.4,1.4,21.6,26.9,1.8,5.73,1.77,-0.0,27.9
2015-09-18 00:42:00,0.0,1.97111,0.00078,393.486,0.141,0.8627,0.0042,140.000,45.001,31693.18034,1.98834,397.681,36.997,45.068,45.001,0.00,0.09,-272.75,-272.80,-10,516,-945,21.5,26.3,1.3,21.6,26.8,1.7,5.73,2.05,-0.0,28.0
2015-09-18 00:43:00,0.0,1.96852,0.00117,393.925,0.158,0.8629,0.0036,140.002,45.001,31694.79203,1.98576,398.119,37.010,45.068,45.001,0.00,0.09,-272.74,-272.81,-9,516,-946,21.5,26.2,1.3,21.7,26.7,1.7,5.73,2.04,-0.0,28.0
2015-09-18 00:44:00,0.0,1.96604,0.00141,394.270,0.187,0.8679,0.0047,140.001,45.001,31696.42598,1.98349,398.491,37.062,45.068,45.001,0.00,0.10,-272.74,-272.80,-9,516,-946,21.5,26.4,1.4,21.6,26.8,1.7,5.73,1.76,-0.0,28.0
2015-09-18 00:45:00,0.0,1.96416,0.00066,394.572,0.064,0.8638,0.0064,140.001,45.001,31699.50159,1.98128,398.783,37.074,45.068,45.001,0.00,0.09,-272.75,-272.80,-10,516,-946,21.5,26.3,1.3,21.7,26.7,1.7,5.73,2.06,-0.0,28.0
2015-09-18 00:46:00,0.0,1.96423,0.00078,394.591,0.034,0.8720,0.0040,140.000,45.001,31697.58822,1.98160,398.848,37.119,45.068,45.001,0.00,0.09,-272.74,-272.81,-10,516,-946,21.5,26.4,1.4,21.7,26.9,1.8,5.73,2.03,-0.0,28.0
2015-09-18 00:47:00,0.0,1.96261,0.00039,394.697,0.060,0.8527,0.0045,140.002,45.001,31699.59019,1.97956,398.855,37.126,45.068,45.001,0.00,0.10,-272.74,-272.80,-8,516,-946,21.5,25.8,1.1,21.7,26.6,1.7,5.73,1.76,-0.0,28.0
2015-09-18 00:48:00,0.0,1.96358,0.00049,394.713,0.048,0.8528,0.0035,140.000,45.001,31699.50570,1.98048,398.873,37.126,45.068,45.001,0.00,0.09,-272.75,-272.80,-9,516,-946,21.5,25.8,1.1,21.7,26.3,1.5,5.73,2.08,-0.0,28.0
2015-09-18 00:49:00,0.0,1.96384,0.00057,394.676,0.057,0.8597,0.0059,140.000,45.000,31700.68374,1.98092,398.870,37.122,45.068,45.000,0.00,0.09,-272.74,-272.80,-10,516,-946,21.5,26.1,1.2,21.7,26.4,1.6,5.73,2.03,-0.0,28.0
2015-09-18 00:50:00,0.0,1.96432,0.00049,394.593,0.033,0.8635,0.0047,140.000,45.000,31700.54319,1.98144,398.806,37.050,45.067,44.999,0.00,0.10,-272.74,-272.80,-10,516,-946,21.5,26.3,1.3,21.7,26.7,1.7,5.73,1.79,-0.0,28.0
2015-09-18 00:51:00,0.0,1.96438,0.00040,394.611,0.036,0.8594,0.0047,139.999,44.999,31700.16917,1.98146,398.802,36.912,45.066,44.999,0.00,0.10,-272.74,-272.80,-9,516,-945,21.4,26.2,1.2,21.6,26.6,1.6,5.73,1.88,-0.0,27.9
2015-09-18 00:52:00,0.0,1.96421,0.00037,394.672,0.024,0.8591,0.0029,140.001,44.998,31699.06871,1.98124,398.862,36.724,45.065,44.998,0.00,0.09,-272.75,-272.80,-9,516,-945,21.4,26.2,1.2,21.6,26.6,1.6,5.73,2.01,-0.0,27.9
2015-09-18 00:53:00,0.0,1.96438,0.00053,394.730,0.055,0.8588,0.0029,140.003,44.997,31695.39783,1.98141,398.917,36.507,45.065,44.997,0.00,0.09,-272.74,-272.81,-9,516,-945,21.4,26.2,1.2,21.6,26.6,1.6,5.73,2.04,-0.0,27.8
2015-09-18 00:54:00,0.0,1.96495,0.00055,394.770,0.030,0.8601,0.0029,139.999,44.996,31688.27844,1.98208,398.967,36.294,45.064,44.997,0.00,0.09,-272.73,-272.81,-9,516,-944,21.4,26.4,1.2,21.6,26.7,1.6,5.73,2.02,-0.0,27.7
2015-09-18 00:55:00,0.0,1.96504,0.00036,394.778,0.026,0.8601,0.0026,140.001,44.996,31682.63690,1.98211,398.975,36.081,45.064,44.997,0.00,0.09,-272.74,-272.80,-9,516,-944,21.3,26.4,1.2,21.5,26.7,1.6,5.73,1.98,-0.0,27.6
2015-09-18 00:56:00,0.0,1.96515,0.00045,394.767,0.030,0.8596,0.0038,140.000,44.996,31674.67266,1.98221,398.962,35.899,45.065,44.997,0.00,0.09,-272.75,-272.81,-9,516,-944,21.2,26.5,1.2,21.5,26.8,1.6,5.73,1.92,-0.0,27.6
2015-09-18 00:57:00,0.0,1.96541,0.00074,394.739,0.044,0.8641,0.0064,139.999,44.996,31667.81193,1.98261,398.956,35.758,45.065,44.998,0.00,0.09,-272.74,-272.80,-9,516,-943,21.3,26.6,1.3,21.5,26.9,1.6,5.73,1.85,-0.0,27.6
2015-09-18 00:58:00,0.0,1.96597,0.00063,394.764,0.036,0.8570,0.0031,140.002,44.997,31663.95210,1.98296,398.945,35.645,45.066,44.999,0.00,0.10,-272.74,-272.80,-9,516,-943,21.2,26.5,1.2,21.4,26.8,1.5,5.73,1.84,-0.0,27.5
2015-09-18 00:59:00,0.0,1.96655,0.00052,394.726,0.031,0.8652,0.0040,139.999,44.997,31660.88747,1.98373,398.948,35.592,45.067,45.000,0.00,0.09,-272.75,-272.81,-10,515,-943,21.2,26.8,1.3,21.4,27.0,1.6,5.73,1.98,-0.0,27.5
2015-09-18 01:00:00,0.0,1.96621,0.00076,394.695,0.047,0.8643,0.0045,139.999,44.998,31659.46322,1.98349,398.912,35.579,45.068,45.001,0.00,0.09,-272.74,-272.80,-10,515,-943,21.2,26.7,1.3,21.4,27.0,1.7,5.73,2.11,-0.0,27.5
2015-09-18 01:01:00,0.0,1.96548,0.00058,394.689,0.037,0.8610,0.0036,140.000,44.999,31660.58914,1.98256,398.888,35.626,45.069,45.002,0.00,0.09,-272.74,-272.80,-9,515,-943,21.2,26.6,1.3,21.5,26.9,1.6,5.73,1.97,-0.1,27.5
2015-09-18 01:02:00,0.0,1.96572,0.00053,394.682,0.053,0.8690,0.0072,140.000,45.000,31661.97667,1.98303,398.923,35.699,45.069,45.002,0.00,0.09,-272.74,-272.81,-8,515,-943,21.3,26.8,1.4,21.4,27.2,1.7,5.73,1.78,-0.1,27.6
2015-09-18 01:03:00,0.0,1.96536,0.00060,394.601,0.069,0.8642,0.0043,140.000,45.001,31663.08439,1.98256,398.820,35.779,45.069,45.002,0.00,0.09,-272.75,-272.80,-9,515,-944,21.2,26.7,1.3,21.5,27.0,1.7,5.73,1.96,-0.0,27.6
2015-09-18 01:04:00,0.0,1.96466,0.00048,394.511,0.036,0.8544,0.0047,140.002,45.001,31664.96563,1.98164,398.678,35.857,45.069,45.001,0.00,0.09,-272.74,-272.80,-10,515,-944,21.3,26.3,1.1,21.5,26.7,1.6,5.73,2.13,-0.0,27.6
2015-09-18 01:05:00,0.0,1.96443,0.00049,394.444,0.027,0.8648,0.0033,139.999,45.002,31668.04700,1.98162,398.661,35.941,45.069,45.001,0.00,0.09,-272.74,-272.80,-9,515,-944,21.3,26.6,1.3,21.5,26.9,1.6,5.73,1.90,-0.1,27.6
2015-09-18 01:06:00,0.0,1.96431,0.00038,394.480,0.044,0.8540,0.0063,139.999,45.002,31668.49922,1.98126,398.645,36.027,45.069,45.001,0.00,0.09,-272.74,-272.81,-9,515,-944,21.3,26.2,1.1,21.5,26.8,1.6,5.73,1.80,-0.1,27.6
2015-09-18 01:07:00,0.0,1.96472,0.00057,394.500,0.032,0.8525,0.0068,140.002,45.002,31671.11646,1.98163,398.653,36.107,45.068,45.000,0.00,0.09,-272.74,-272.80,-9,515,-944,21.3,26.3,1.2,21.5,26.5,1.5,5.73,2.06,-0.0,27.6
2015-09-18 01:08:00,0.0,1.96504,0.00042,394.391,0.040,0.8665,0.0057,140.000,45.002,31670.46644,1.98228,398.618,36.177,45.068,45.000,0.00,0.09,-272.74,-272.80,-9,515,-944,21.3,26.7,1.4,21.5,27.0,1.7,5.73,2.07,-0.0,27.7
2015-09-18 01:09:00,0.0,1.96552,0.00050,394.394,0.037,0.8669,0.0046,139.999,45.002,31670.69559,1.98270,398.621,36.255,45.068,45.000,0.00,0.09,-272.74,-272.81,-10,515,-944,21.3,26.7,1.4,21.5,27.0,1.7,5.73,1.80,-0.0,27.7
2015-09-18 01:10:00,0.0,1.96628,0.00040,394.398,0.036,0.8555,0.0063,140.002,45.001,31673.02280,1.98330,398.567,36.324,45.068,45.000,0.00,0.09,-272.75,-272.80,-9,516,-944,21.3,26.2,1.1,21.5,26.8,1.6,5.73,1.90,-0.1,27.7
2015-09-18 01:11:00,0.0,1.96648,0.00042,394.319,0.070,0.8590,0.0030,140.000,45.001,31676.26630,1.98352,398.508,36.398,45.068,45.000,0.00,0.09,-272.75,-272.80,-8,515,-945,21.3,26.4,1.2,21.5,26.7,1.6,5.73,2.14,-0.1,27.7
2015-09-18 01:12:00,0.0,1.96635,0.00049,394.266,0.040,0.8672,0.0036,140.000,45.001,31678.07265,1.98364,398.494,36.471,45.068,45.000,0.00,0.09,-272.74,-272.80,-9,515,-945,21.3,26.6,1.4,21.5,26.9,1.7,5.73,1.91,-0.1,27.7
2015-09-18 01:13:00,0.0,1.96607,0.00036,394.273,0.045,0.8728,0.0052,139.996,45.001,31679.31446,1.98340,398.528,36.538,45.068,45.000,0.00,0.09,-272.75,-272.80,-10,515,-945,21.4,26.8,1.5,21.5,27.1,1.8,5.73,1.80,-0.1,27.8
2015-09-18 01:14:00,0.0,1.96599,0.00043,394.270,0.049,0.8687,0.0039,140.002,45.001,31684.88931,1.98330,398.507,36.605,45.068,45.000,0.00,0.09,-272.75,-272.80,-9,516,-945,21.4,26.6,1.4,21.6,27.1,1.8,5.73,2.09,-0.0,27.8
2015-09-18 01:15:00,0.0,1.96612,0.00048,394.223,0.125,0.8559,0.0062,140.002,45.001,31687.84596,1.98312,398.391,36.672,45.068,45.000,0.00,0.09,-272.74,-272.80,-8,516,-945,21.4,26.2,1.2,21.6,26.7,1.6,5.73,2.03,-0.0,27.8
2015-09-18 01:16:00,0.0,1.96624,0.00059,394.261,0.049,0.8621,0.0021,140.001,45.001,31688.09695,1.98338,398.465,36.736,45.068,45.000,0.00,0.09,-272.74,-272.81,-9,515,-945,21.4,26.3,1.3,21.6,26.8,1.6,5.73,1.77,-0.0,27.8
2015-09-18 01:17:00,0.0,1.96661,0.00042,394.212,0.028,0.8670,0.0064,140.002,45.001,31690.56774,1.98384,398.435,36.788,45.068,45.001,0.00,0.09,-272.75,-272.80,-10,515,-945,21.4,26.5,1.4,21.6,26.9,1.7,5.73,2.01,-0.0,27.9
2015-09-18 01:18:00,0.0,1.96650,0.00048,394.297,0.093,0.8662,0.0058,140.000,45.001,31689.93683,1.98376,398.519,36.829,45.068,45.000,0.00,0.09,-272.74,-272.80,-9,516,-945,21.5,26.4,1.4,21.6,27.0,1.8,5.73,2.10,-0.0,27.9
2015-09-18 01:19:00,0.0,1.96673,0.00047,394.372,0.032,0.8705,0.0050,140.001,45.001,31691.29124,1.98399,398.616,36.880,45.068,45.001,0.00,0.09,-272.74,-272.81,-8,515,-945,21.5,26.6,1.5,21.7,26.9,1.8,5.73,1.78,-0.0,27.9
2015-09-18 01:20:00,0.0,1.96664,0.00043,394.339,0.069,0.8735,0.0090,140.001,45.001,31692.10715,1.98406,398.597,36.925,45.068,45.001,0.00,0.09,-272.75,-272.80,-9,515,-945,21.5,26.6,1.5,21.6,27.1,1.9,5.73,1.97,-0.0,27.9
2015-09-18 01:21:00,0.0,1.96686,0.00043,394.418,0.113,0.8729,0.0074,140.001,45.001,31695.39651,1.98420,398.675,36.953,45.068,45.001,0.00,0.09,-272.74,-272.80,-10,516,-945,21.5,26.6,1.5,21.6,27.1,1.8,5.73,2.12,-0.0,28.0
2015-09-18 01:22:00,0.0,1.96666,0.00041,394.566,0.075,0.8682,0.0037,139.999,45.001,31696.23452,1.98396,398.797,36.992,45.068,45.001,0.00,0.09,-272.74,-272.80,-9,516,-945,21.5,26.4,1.4,21.7,26.9,1.8,5.73,1.79,-0.0,28.0
2015-09-18 01:23:00,0.0,1.96695,0.00070,394.582,0.189,0.8663,0.0037,139.998,45.001,31697.43596,1.98414,398.818,37.010,45.068,45.001,0.00,0.09,-272.75,-272.80,-9,516,-946,21.5,26.3,1.4,21.7,26.8,1.7,5.73,1.96,-0.0,28.0
2015-09-18 01:24:00,0.0,1.96816,0.00044,394.281,0.138,0.8755,0.0089,140.002,45.000,31699.74627,1.98559,398.548,37.032,45.068,45.000,0.00,0.09,-272.74,-272.80,-10,516,-945,21.5,26.6,1.5,21.7,26.9,1.8,5.73,2.12,-0.0,28.0
2015-09-18 01:25:00,0.0,1.96832,0.00038,394.248,0.060,0.8736,0.0043,140.000,45.000,31699.74108,1.98569,398.507,37.017,45.067,45.000,0.00,0.09,-272.74,-272.80,-10,516,-945,21.5,26.6,1.5,21.6,27.1,1.9,5.73,1.82,0.0,28.0
2015-09-18 01:26:00,0.0,1.96866,0.00058,394.144,0.048,0.8854,0.0042,140.001,45.000,31701.00624,1.98628,398.459,36.951,45.067,44.999,0.00,0.09,-272.75,-272.80,-9,516,-945,21.5,27.0,1.7,21.7,27.3,2.0,5.73,1.84,-0.0,27.9
2015-09-18 01:27:00,0.0,1.96813,0.00068,394.373,0.069,0.8943,0.0075,140.000,44.999,31699.01461,1.98601,398.734,36.818,45.066,44.998,0.00,0.09,-272.75,-272.80,-9,516,-945,21.4,27.3,1.8,21.6,27.7,2.2,5.73,2.00,0.0,27.9
2015-09-18 01:28:00,0.0,1.96793,0.00058,394.674,0.059,0.8723,0.0046,140.000,44.998,31694.07664,1.98529,398.929,36.641,45.065,44.998,0.00,0.09,-272.74,-272.80,-9,516,-945,21.4,26.7,1.5,21.6,27.2,1.9,5.73,2.05,-0.0,27.8
2015-09-18 01:29:00,0.0,1.96830,0.00031,394.607,0.099,0.8873,0.0040,140.001,44.997,31686.72566,1.98595,398.943,36.423,45.064,44.997,0.00,0.09,-272.74,-272.80,-9,516,-944,21.4,27.2,1.7,21.6,27.5,2.0,5.73,2.02,-0.0,27.7
2015-09-18 01:30:00,0.0,1.96836,0.00053,394.559,0.070,0.8785,0.0037,140.001,44.996,31681.55995,1.98580,398.847,36.199,45.064,44.997,0.00,0.09,-272.74,-272.80,-9,516,-944,21.4,27.0,1.6,21.5,27.4,1.9,5.73,1.98,-0.0,27.7
2015-09-18 01:31:00,0.0,1.96970,0.00035,394.129,0.173,0.8887,0.0041,139.999,44.996,31673.85168,1.98744,398.470,35.990,45.064,44.997,0.00,0.09,-272.73,-272.80,-9,516,-944,21.3,27.3,1.7,21.5,27.6,2.0,5.73,1.93,0.0,27.6
2015-09-18 01:32:00,0.0,1.96952,0.00044,393.908,0.055,0.8651,0.0061,140.000,44.996,31667.81584,1.98674,398.124,35.814,45.065,44.998,0.00,0.09,-272.74,-272.80,-9,516,-943,21.3,26.6,1.3,21.5,27.2,1.8,5.73,1.88,-0.0,27.6
2015-09-18 01:33:00,0.0,1.96967,0.00058,393.813,0.040,0.8655,0.0043,139.999,44.996,31661.19713,1.98697,398.027,35.675,45.066,44.999,0.00,0.09,-272.75,-272.81,-9,516,-943,21.2,26.7,1.3,21.5,27.0,1.7,5.73,1.84,-0.0,27.5
2015-09-18 01:34:00,0.0,1.96942,0.00042,393.951,0.099,0.8517,0.0027,140.001,44.997,31657.64130,1.98636,398.094,35.582,45.067,45.000,0.00,0.10,-272.74,-272.80,-9,515,-943,21.2,26.3,1.1,21.4,26.7,1.5,5.73,1.90,-0.0,27.4
2015-09-18 01:35:00,0.0,1.96962,0.00047,394.038,0.044,0.8634,0.0071,140.002,44.998,31656.70655,1.98678,398.242,35.562,45.068,45.001,0.00,0.09,-272.74,-272.80,-10,515,-943,21.2,26.7,1.3,21.4,26.8,1.6,5.73,2.06,-0.0,27.5
2015-09-18 01:36:00,0.0,1.96976,0.00049,393.926,0.064,0.8653,0.0055,140.002,44.999,31656.42641,1.98698,398.141,35.569,45.069,45.001,0.00,0.09,-272.74,-272.81,-10,515,-943,21.3,26.8,1.4,21.4,27.1,1.7,5.73,2.08,-0.1,27.5
2015-09-18 01:37:00,0.0,1.97013,0.00045,393.910,0.062,0.8837,0.0068,140.001,45.000,31655.80963,1.98780,398.212,35.638,45.069,45.002,0.00,0.09,-272.74,-272.81,-9,515,-943,21.2,27.3,1.6,21.4,27.5,1.9,5.73,1.85,-0.0,27.5
2015-09-18 01:38:00,0.0,1.96961,0.00052,394.119,0.053,0.8586,0.0056,140.002,45.001,31658.01953,1.98674,398.306,35.720,45.070,45.002,0.00,0.10,-272.74,-272.80,-8,515,-943,21.3,26.5,1.2,21.4,27.1,1.7,5.73,1.83,-0.1,27.5
2015-09-18 01:39:00,0.0,1.96963,0.00039,394.142,0.091,0.8532,0.0061,140.000,45.001,31659.67854,1.98657,398.292,35.797,45.070,45.002,0.00,0.09,-272.75,-272.80,-9,515,-944,21.3,26.3,1.2,21.5,26.6,1.5,5.73,2.07,-0.0,27.5
2015-09-18 01:40:00,0.0,1.96996,0.00054,394.228,0.142,0.8800,0.0061,139.999,45.002,31662.77816,1.98751,398.516,35.897,45.069,45.001,0.00,0.09,-272.75,-272.80,-10,515,-944,21.3,27.2,1.6,21.5,27.3,1.8,5.73,2.07,-0.0,27.6
2015-09-18 01:41:00,0.0,1.96986,0.00047,394.078,0.081,0.8777,0.0100,140.000,45.002,31665.43625,1.98736,398.357,35.986,45.069,45.001,0.00,0.10,-272.74,-272.80,-9,515,-944,21.3,27.0,1.6,21.5,27.5,2.0,5.73,1.81,-0.0,27.6
2015-09-18 01:42:00,0.0,1.97052,0.00048,393.947,0.108,0.8757,0.0063,140.001,45.002,31666.63118,1.98792,398.217,36.084,45.068,45.000,0.00,0.09,-272.74,-272.80,-9,515,-944,21.3,27.0,1.5,21.5,27.3,1.9,5.73,1.88,-0.0,27.6
2015-09-18 01:43:00,0.0,1.97020,0.00049,394.168,0.113,0.8687,0.0060,140.001,45.002,31668.56789,1.98754,398.398,36.146,45.068,45.000,0.00,0.09,-272.75,-272.80,-9,515,-944,21.3,26.7,1.4,21.5,27.2,1.8,5.73,2.13,-0.0,27.6
2015-09-18 01:44:00,0.0,1.97025,0.00042,394.207,0.062,0.8703,0.0048,140.001,45.002,31670.84862,1.98762,398.450,36.228,45.068,45.000,0.00,0.09,-272.74,-272.80,-9,515,-944,21.3,26.7,1.4,21.5,27.1,1.8,5.73,1.97,-0.0,27.7
2015-09-18 01:45:00,0.0,1.97028,0.00043,394.193,0.085,0.8677,0.0038,139.999,45.001,31670.88380,1.98758,398.420,36.297,45.068,45.000,0.00,0.10,-272.74,-272.80,-10,515,-944,21.3,26.6,1.4,21.5,27.1,1.7,5.73,1.78,-0.0,27.7
2015-09-18 01:46:00,0.0,1.97038,0.00033,394.021,0.110,0.8651,0.0068,140.000,45.002,31671.65036,1.98761,398.241,36.381,45.068,45.000,0.00,0.09,-272.75,-272.80,-9,516,-945,21.4,26.5,1.3,21.5,27.0,1.7,5.73,2.04,-0.0,27.7